This is the latest recevied weather packets stored in our database for station/object W5COG. If no packets are shown the sender has not sent any weather packets the latest 10 day(s).
| Time | Temp. | Humidity | Pressure | Rain* | Wind** | Luminosity | Snow |
|---|---|---|---|---|---|---|---|
| 1777528526 | 12.78° C | 68% | 1017.9 hPa | 0 mm | - | 0 W/m² | - |
| 1777528226 | 12.78° C | 69% | 1017.8 hPa | 0 mm | - | 0 W/m² | - |
| 1777527926 | 12.78° C | 68% | 1017.7 hPa | 0 mm | - | 0 W/m² | - |
| 1777527626 | 12.22° C | 71% | 1017.8 hPa | 0 mm | - | 0 W/m² | - |
| 1777527326 | 12.22° C | 73% | 1017.7 hPa | 0 mm | - | 0 W/m² | - |
| 1777527026 | 12.22° C | 74% | 1017.7 hPa | 0 mm | - | 0 W/m² | - |
| 1777526726 | 12.22° C | 74% | 1017.9 hPa | 0 mm | - | 0 W/m² | - |
| 1777526426 | 12.22° C | 74% | 1017.9 hPa | 0 mm | - | 0 W/m² | - |
| 1777526126 | 12.22° C | 73% | 1018.1 hPa | 0 mm | - | 0 W/m² | - |
| 1777525826 | 12.22° C | 73% | 1018.1 hPa | 0 mm | - | 0 W/m² | - |
| 1777525526 | 12.22° C | 73% | 1018.1 hPa | 0 mm | - | 0 W/m² | - |
| 1777525226 | 12.78° C | 72% | 1018 hPa | 0 mm | - | 0 W/m² | - |
| 1777524927 | 12.78° C | 71% | 1018 hPa | 0 mm | - | 0 W/m² | - |
| 1777524626 | 12.78° C | 72% | 1017.8 hPa | 0 mm | - | 0 W/m² | - |
| 1777524326 | 12.78° C | 72% | 1017.9 hPa | 0 mm | - | 0 W/m² | - |
| 1777524026 | 12.78° C | 72% | 1017.9 hPa | 0 mm | - | 0 W/m² | - |
| 1777523726 | 12.78° C | 71% | 1018 hPa | 0 mm | - | 0 W/m² | - |
| 1777523426 | 12.78° C | 72% | 1018 hPa | 0 mm | - | 0 W/m² | - |
| 1777523126 | 12.78° C | 72% | 1018.1 hPa | 0 mm | - | 0 W/m² | - |
| 1777522826 | 12.78° C | 71% | 1018.1 hPa | 0 mm | - | 0 W/m² | - |
| 1777522526 | 12.78° C | 70% | 1018 hPa | 0 mm | - | 0 W/m² | - |
| 1777522226 | 12.78° C | 70% | 1017.8 hPa | 0 mm | - | 0 W/m² | - |
| 1777521926 | 13.33° C | 70% | 1017.8 hPa | 0 mm | - | 0 W/m² | - |
| 1777521626 | 13.33° C | 70% | 1017.8 hPa | 0 mm | - | 0 W/m² | - |
| 1777521326 | 13.33° C | 68% | 1017.8 hPa | 0 mm | - | 0 W/m² | - |
* Rain latest hour (hover to see other rain measurements)
** Current wind speed in m/s (hover to see current wind gust speed)